Weather History for Monte Cimone, Italy

Change the Weather History Date:

Friday, April 26, 2013

  Actual Average Record
Temperature  
Mean Temperature 42 °F -  
Max Temperature 46 °F 41 °F 46 °F (1998)
Min Temperature 37 °F 33 °F 24 °F (2004)
Degree Days  
Heating Degree Days 24    
Moisture  
Dew Point 36 °F    
Average Humidity 74    
Maximum Humidity 100    
Minimum Humidity 51    
Precipitation  
Precipitation 0.00 in 0.07 in - ()
Sea Level Pressure  
Sea Level Pressure 30.18 in    
Wind  
Wind Speed 16 mph ()    
Max Wind Speed 39 mph    
Max Gust Speed -    
Visibility 5.6 miles    
Events Fog    
Averages and records for this station are not official NWS values.
T = Trace of Precipitation, MM = Missing Value Source: Averaged Metar Reports

Daily Weather History Graph

Daily Weather History Graph

Search for Another Location

Airport:

Trip Planner

Search our weather history database for the weather conditions in past years. The results will help you decide how hot, cold, wet, or windy it might be!

Date:

Astronomy

Apr. 26, 2013 Rise Set
Actual Time 6:15 AM CEST 8:14 PM CEST
Civil Twilight 5:44 AM CEST 8:46 PM CEST
Nautical Twilight 5:06 AM CEST 9:24 PM CEST
Astronomical Twilight 4:24 AM CEST 10:06 PM CEST
Moon 9:20 PM CEST (4/26) 6:29 AM CEST (4/26)
Length of Visible Light 15h 01m
Length of Day
13h 59m
Full, 100% of the Moon is Illuminated
Apr 26
Full
May 2
Last Quarter
May 10
New
May 18
First Quarter
May 25
Full

Hourly Weather History & Observations

Time (CEST) Temp. Windchill Dew Point Humidity Pressure Visibility Wind Dir Wind Speed Gust Speed Precip Events Conditions
12:55 AM 46.4 °F 41.9 °F 39.2 °F 76% 30.36 in 6.2 mi SW 9.2 mph - N/A   Scattered Clouds
1:55 AM 46.4 °F 42.9 °F 39.2 °F 76% 30.36 in 6.2 mi SW 6.9 mph - N/A   Scattered Clouds
2:00 AM 47 °F - 39 °F 64%  in 31 mi SW 6.9 mph - -   Mostly Cloudy
2:55 AM 46.4 °F 41.9 °F 37.4 °F 71% 30.33 in 6.2 mi WNW 9.2 mph - N/A   Scattered Clouds
3:55 AM 46.4 °F 39.8 °F 33.8 °F 62% 30.30 in 6.2 mi North 16.1 mph - N/A   Scattered Clouds
4:55 AM 46.4 °F 39.5 °F 32.0 °F 57% 30.30 in 6.2 mi South 17.3 mph - N/A   Scattered Clouds
5:55 AM 44.6 °F 36.9 °F 32.0 °F 61% 30.27 in 6.2 mi SSW 18.4 mph - N/A   Scattered Clouds
6:55 AM 46.4 °F 39.5 °F 33.8 °F 62% 30.27 in 6.2 mi SSW 17.3 mph - N/A   Scattered Clouds
7:55 AM 44.6 °F 37.8 °F 32.0 °F 61% 30.27 in 6.2 mi SW 15.0 mph - N/A   Scattered Clouds
8:00 AM 45 °F - 33 °F 51%  in 19 mi SW 15.0 mph - -   Mostly Cloudy
8:55 AM 46.4 °F 39.2 °F 32.0 °F 57% 30.27 in 6.2 mi WSW 18.4 mph - N/A   Mostly Cloudy
9:55 AM 46.4 °F 38.7 °F 33.8 °F 62% 30.24 in 6.2 mi WSW 20.7 mph - N/A   Scattered Clouds
10:55 AM 46.4 °F 38.1 °F 35.6 °F 66% 30.24 in 6.2 mi WSW 24.2 mph - N/A   Scattered Clouds
11:55 AM 44.6 °F 36.1 °F 35.6 °F 71% 30.24 in 6.2 mi WSW 21.9 mph - N/A   Scattered Clouds
12:55 PM 46.4 °F 36.5 °F 37.4 °F 71% 30.18 in 6.2 mi WSW 34.5 mph - N/A   Scattered Clouds
1:55 PM 44.6 °F 35.9 °F 35.6 °F 71% 30.18 in 6.2 mi WSW 23.0 mph - N/A   Mostly Cloudy
2:00 PM 45 °F - 35 °F 58%  in 9 mi WSW 23.0 mph - -   Overcast
2:55 PM 44.6 °F 37.4 °F 35.6 °F 71% 30.15 in 6.2 mi WSW 16.1 mph - N/A   Scattered Clouds
3:55 PM 44.6 °F 36.9 °F 37.4 °F 76% 30.12 in 6.2 mi WSW 18.4 mph - N/A   Mostly Cloudy
4:55 PM 42.8 °F 34.8 °F 37.4 °F 81% 30.09 in 6.2 mi WSW 17.3 mph - N/A   Scattered Clouds
5:55 PM 42.8 °F 33.8 °F 41.0 °F 93% 30.09 in 6.2 mi WSW 21.9 mph - N/A   Mostly Cloudy
6:55 PM 42.8 °F 34.3 °F 41.0 °F 93% 30.09 in 0.0 mi WSW 19.6 mph - N/A Fog Fog
7:55 PM 41.0 °F 29.0 °F 41.0 °F 100% 30.04 in 0.0 mi WSW 35.7 mph - N/A Fog Fog
8:00 PM 41 °F - 41 °F 99%  in 0 mi WSW 35.7 mph - - Fog Heavy Fog
8:55 PM 39.2 °F 27.8 °F 37.4 °F 93% 30.04 in 0.0 mi WSW 27.6 mph - N/A Fog Fog
9:55 PM 39.2 °F 26.0 °F 35.6 °F 87% 30.01 in 6.2 mi West 39.1 mph - N/A   Scattered Clouds
10:55 PM 37.4 °F 24.0 °F 33.8 °F 87% 29.98 in 6.2 mi WSW 35.7 mph - N/A   Scattered Clouds
11:55 PM 37.4 °F 24.6 °F 35.6 °F 93% 29.98 in 0.0 mi WSW 32.2 mph - N/A Fog Fog